sat.trackr.live / text

‹ back to catalog

STARLINK-2583

NORAD 48439 · 2021-040M

PAYLOAD ACTIVE UNKNOWN

§ Identity

Operator
Country
US
Launch date
2021-05-09
Launch site
AFETR
Launch vehicle
Mass (kg)
RCS (m²)

Purposes: comms

External: N2YO · Heavens-Above · Gunter

§ Orbital elements

Epoch: 2026-09-14T14:50:53.774880Z

Period
94.01 min
Inclination
53.1607°
Eccentricity
0.0001152
Mean motion
15.31702510 rev/d
Perigee alt
469.9 km
Apogee alt
471.5 km
Semi-major
6,848.9 km
B*
2.9768e-5
RAAN
19.1528°
Arg perigee
92.0389°
Mean anomaly
268.0744°
Rev number
29,562

§ Raw data

STARLINK-25831 48439U 21040M   26257.61867795  .00000559  00000+0  29768-4 0  99902 48439  53.1607  19.1528 0001152  92.0389 268.0744 15.31702510295628

JSON: /api/v1/satellites/48439 · /tle

For live sub-satellite position, see the globe view (requires WebGL).

§ Visibility from observer

Set your observer location to see the next 7 days of passes ≥ 10°. The values pass through the URL so the page stays shareable.

No JS? Fill the form by hand. The geolocation button needs JavaScript.